AirNav   Air Wisconsin pilot careers
 
 303 users online  

13K Lt. William M. Milliken Airport
Eureka, Kansas, USA

GOING TO EUREKA?


FAA INFORMATION EFFECTIVE 03 JANUARY 2019

Location

FAA Identifier: 13K
Lat/Long: 37-51-05.8000N / 096-17-31.3000W
37-51.096667N / 096-17.521667W
37.8516111 / -96.2920278
(estimated)
Elevation: 1208.1 ft. / 368.2 m (surveyed)
Variation: 06E (1985)
From city: 2 miles N of EUREKA, KS
Time zone: UTC -6 (UTC -5 during Daylight Saving Time)
Zip code: 67045

Airport Operations

Airport use: Open to the public
Activation date: 07/1959
Control tower: no
ARTCC: KANSAS CITY CENTER
FSS: WICHITA FLIGHT SERVICE STATION
NOTAMs facility: ICT (NOTAM-D service available)
Attendance: 0800-1700
Wind indicator: lighted, WIND INDICATOR IS FADED.
Segmented circle: yes
Beacon: white-green (lighted land airport)
Operates sunset to sunrise.

Airport Communications

CTAF/UNICOM: 122.8
WX AWOS-3: 120.975 (620-583-5442)
  • APCH/DEP SERVICE PROVIDED BY KANSAS CITY ARTCC ON FREQS 120.2/323.2 (EMPORIA RCAG).

Nearby radio navigation aids

VOR radial/distance  VOR name  Freq  Var
EMPr187/27.4EMPORIA VORTAC112.8008E
CNUr287/35.8CHANUTE VOR/DME109.2005E

 
NDB name  Hdg/Dist  Freq  Var  ID
BOYD220/38.124505EUKL ..- -.- .-..

Airport Services

Fuel available: 100LL MOGAS
Parking: tiedowns
Airframe service: MAJOR
Powerplant service: MAJOR
Bottled oxygen: NONE
Bulk oxygen: NONE

Runway Information

Runway 18/36

Dimensions: 3504 x 60 ft. / 1068 x 18 m
Surface: asphalt, in fair condition
Weight bearing capacity: 
Single wheel: 8.0
Runway edge lights: low intensity
Runway edge markings: NRS ARE FADED DUE TO AGE AND WEATHER.
Gradient: N
RUNWAY 18  RUNWAY 36
Latitude: 37-51.323765N37-50.756317N
Longitude: 096-17.419327W096-17.552978W
Elevation: 1206.4 ft.1195.6 ft.
Gradient: 0.3%0.3% UP
Traffic pattern: leftleft
Runway heading: 185 magnetic, 191 true005 magnetic, 011 true
Markings: numbers only, in poor conditionnumbers only, in poor condition
Visual slope indicator: 2-light PAPI on left (3.00 degrees glide path)2-light PAPI on left (3.00 degrees glide path)
Runway end identifier lights: nono
Touchdown point: yes, no lightsyes, no lights

Runway 8/26

Dimensions: 2146 x 55 ft. / 654 x 17 m
Surface: turf, in fair condition
Runway edge markings: WHITE TIRES MARK RY END.
Gradient: E
RUNWAY 8  RUNWAY 26
Latitude: 37-51.182243N37-51.197352N
Longitude: 096-17.802540W096-17.356937W
Elevation: 1194.6 ft.1208.1 ft.
Gradient: 0.6% UP0.6%
Traffic pattern: leftleft
Runway heading: 081 magnetic, 087 true261 magnetic, 267 true
Runway end identifier lights: nono
Touchdown point: yes, no lightsyes, no lights
Obstructions: 4 ft. fence, marked, 76 ft. from runway, 19:1 slope to clear
DELINEATED WITH WHITE PAINTED TIRES.
23 ft. pline, 502 ft. from runway, 21:1 slope to clear

Airport Ownership and Management from official FAA records

Ownership: Publicly-owned
Owner: CITY OF EUREKA
MEMORIAL HALL
EUREKA, KS 67045
Phone 620-583-6511
Manager: LARRY DUTTON
1667 P ROAD
EUREKA, KS 67045
Phone 620-583-7732

Airport Operational Statistics

Aircraft based on the field: 14
Single engine airplanes: 13
Helicopters: 1
    
Aircraft operations: avg 94/week *
80% local general aviation
20% transient general aviation
* for 12-month period ending 01 September 2017

Additional Remarks

A58-36 GROUND DROPS DOWN ABRUPTLY 85 FT FM END OF RY.
WILDLIFE ON & INVOF ARPT.
RY 18/36 NSTD LIRL; NON-BREAKABLE COUPLINGS & VARIES IN ELEV OVR 14 INCHES. RY 18 THLD LGTS ON GND; RY 36 NSTD THLD LGTS.

Instrument Procedures

NOTE: All procedures below are presented as PDF files. If you need a reader for these files, you should download the free Adobe Reader.

NOT FOR NAVIGATION. Please procure official charts for flight.
FAA instrument procedures published for use from 3 January 2019 at 0901Z to 31 January 2019 at 0900Z.

 
IAPs - Instrument Approach Procedures
RNAV (GPS) RWY 18   download (185KB)
VOR/DME RWY 18   download (191KB)
NOTE: Special Take-Off Minimums/Departure Procedures apply   download (213KB)

Other nearby airports with instrument procedures:

KEQA - El Dorado/Captain Jack Thomas Memorial Airport (25 nm W)
KEMP - Emporia Municipal Airport (29 nm N)
KUKL - Coffey County Airport (38 nm NE)
3AU - Augusta Municipal Airport (39 nm W)
1K1 - Lloyd Stearman Field Airport (39 nm W)
 
Loc | Ops | Rwys | IFR | FBO | Links
Com | Nav | Svcs | Stats | Notes

Kansas City Aviation Department
 
Area around 13K (Lt. William M. Milliken Airport)
 
Road maps at: MapQuest Bing Google
 
Aerial photo
WARNING: Photo may not be current or correct
Aerial photo of 13K (Lt. William M. Milliken Airport)
Photo by David Newcomer
Photo taken 17-Oct-2015
from 4,500 altitude looking southeast.

Do you have a better or more recent aerial photo of Lt. William M. Milliken Airport that you would like to share? If so, please send us your photo.

 
Sectional chart

 
Airport distance calculator
Flying to Lt. William M. Milliken Airport? Find the distance to fly.

From to 13K

Sunrise and sunset
Times for 19-Jan-2019
 Local
(UTC-6)
 Zulu
(UTC)
Morning civil twilight07:1113:11
Sunrise07:3913:39
Sunset17:3323:33
Evening civil twilight18:0100:01

Current date and time
Zulu (UTC)  19-Jan-2019 09:37:48
Local (UTC-6)  19-Jan-2019 03:37:48
 
METAR
KEQA 
25nm W 
190915Z AUTO 35027G38KT 10SM OVC010 M05/M07 A2999 RMK AO2
KEMP 
29nm N 
190853Z AUTO 35023G39KT 7SM OVC012 M07/M09 A3001 RMK AO2 PK WND 33039/0846 SLP176 P0000 60000 T10721089 51023
K3AU 
39nm W 
190915Z AUTO 34021G33KT 10SM OVC013 M06/M07 A3003 RMK AO2
K1K1 
39nm W 
190915Z AUTO 35021KT 10SM OVC013 M07/M09 A3003 RMK AO2 T10701088
KCNU 
40nm E 
190852Z AUTO 35019G30KT 10SM OVC014 M03/M05 A2993 RMK AO2 PK WND 01035/0834 UPB23E40SNE19 SLP137 P0000 60001 T10331050 53021
KK88 
43nm E 
190915Z AUTO 34023G31KT 10SM OVC012 M04/M06 A2995 RMK AO1 T10451058
KAAO 
44nm W 
190854Z AUTO 35033G44KT 10SM OVC012 M07/M08 A3001 RMK AO2 PK WND 33044/0845 SLP176 60000 T10671083 51020 $
KBEC 
45nm W 
190915Z AUTO 35018G31KT 10SM OVC013 M06/M09 A3002 RMK AO2 T10651090
KEWK 
47nm W 
190856Z AUTO 35029G37KT 9SM -SN OVC013 M08/M09 A3003 RMK AO2 PK WND 35040/0836 SNB0757 SLP182 P0000 60000 T10781089 50021 FZRANO
KIDP 
48nm SE 
190915Z AUTO 36030G37KT 10SM OVC013 M03/M06 A2993 RMK AO2 T10321055
TAF
KCNU 
40nm E 
190703Z 1907/2006 35024G32KT 5SM -SN OVC011 FM190900 35023G31KT P6SM OVC020 FM192200 34017G25KT P6SM SCT050 FM200500 35007KT P6SM FEW250
KIAB 
48nm W 
182327Z 1823/1924 VRB06KT 6000 -RA BR OVC004 520023 QNH2967INS BECMG 1902/1903 35025G35KT 4800 -SN OVC002 650029 510024 520426 QNH2976INS BECMG 1905/1906 35025G45KT 9999 NSW BKN005 650059 510033 510553 QNH2989INS BECMG 1908/1909 34030G45KT 9999 BKN010 650159 520044 QNH3000INS BECMG 1917/1918 35020G25KT 9999 SCT020 QNH3025INS BECMG 1923/1924 34009KT 9999 FEW013 QNH3030INS TX06/1823Z TNM09/1911Z LAST NO AMDS AFT 1823 NEXT 2210
NOTAMs
Click for the latest NOTAMs
NOTAMs are issued by the DoD/FAA and will open in a separate window not controlled by AirNav.

 

 
 

FBO, Fuel Providers, and Aircraft Ground Support

  
 Business Name 
 
 Contact 
 
 Services / Description 
 
Fuel Prices
 
Comments
  
Captain D Aviation 620-583-7732
no information available

If you are affiliated with Captain D Aviation and would like to show here your services, contact info, web link, logo, and more, click here
100LL Mogas
FS $4.69 $3.31 
 Updated 26-Dec-2018
 
   write
FS=Full service
Update Fuel Prices
 

Would you like to see your business listed on this page?

 If your business provides an interesting product or service to pilots, flight crews, aircraft, or users of the Lt. William M. Milliken Airport, you should consider listing it here.  To start the listing process, click on the button below
 
Add a business
 

Other Pages about Lt. William M. Milliken Airport

Update a link
 
Copyright © AirNav, LLC. All rights reserved. Privacy Policy  Contact